Regional Weather Roundup
Issued by NWS

Home | Current Version | Previous Version | Graphics & Text | Print | Product List | Glossary On
Versions: 1 2 3 4 5 6 7 8 9 10 11 12 13 14 15 16 17 18 19 20 21 22 23 24 25 26 27 28 29 30 31 32 33 34 35 36 37 38 39 40 41 42 43 44 45 46 47 48 49 50
037
ASUS43 KDTX 010001
RWRMI
MICHIGAN HOURLY REGIONAL WEATHER ROUNDUP
NATIONAL WEATHER SERVICE DETROIT/PONTIAC MI
800 PM EDT SAT APR 30 2016

NOTE: "FAIR" INDICATES FEW OR NO CLOUDS BELOW 12,000 FEET WITH NO
SIGNIFICANT WEATHER AND/OR OBSTRUCTION TO VISIBILITY.

MIZ047>049-052>055-059>063-066>070-074>076-081>083-010100-
SOUTHEAST LOWER MICHIGAN

CITY           SKY/WX    TMP DP  RH WIND       PRES   REMARKS
ADRIAN         RAIN      46  45  96 E14       30.01S FOG
6HR MIN TEMP:  46; 6HR MAX TEMP:  51; 6HR PCP: TRACE;

ALMA           LGT RAIN  47  42  81 NE9       30.05R
ANN ARBOR      LGT RAIN  47  45  93 E9        30.02F FOG
BAD AXE        CLOUDY    48  28  46 E8        30.08F
CARO           DRIZZLE   51  37  57 E10       30.05S
DETROIT CITY   LGT RAIN  48  45  89 E9        30.05F
6HR MIN TEMP:  48; 6HR MAX TEMP:  53; 6HR PCP:  0.12;

DETROIT        LGT RAIN  48  45  89 E8        30.04F FOG
6HR MIN TEMP:  48; 6HR MAX TEMP:  55; 6HR PCP:  0.13;

FLINT          LGT RAIN  52  47  83 SE7       30.04S
6HR MIN TEMP:  52; 6HR MAX TEMP:  62; 6HR PCP:  0.07;

GROSSE ILE     RAIN      48  45  87 E7        30.03F
HILLSDALE      LGT RAIN  45  45 100 E16       29.96F
6HR MIN TEMP:  45; 6HR MAX TEMP:  50;

HOWELL         LGT RAIN  48  46  93 E9        30.03S

CITY           SKY/WX    TMP DP  RH WIND       PRES   REMARKS
JACKSON        RAIN      48  46  93 E12       29.99F FOG
6HR MIN TEMP:  48; 6HR MAX TEMP:  53; 6HR PCP:  0.25;

LAMBERTVILLE   LGT RAIN  48  46  93 E10G20    30.00F
6HR MIN TEMP:  47; 6HR MAX TEMP:  50;

LANSING        LGT RAIN  48  45  89 E9        30.03S FOG
6HR MIN TEMP:  48; 6HR MAX TEMP:  56; 6HR PCP:  0.09;

LAPEER         DRIZZLE   47  41  79 E7        30.06R
6HR MIN TEMP:  47; 6HR MAX TEMP:  58; 6HR PCP:  0.05;

MASON          RAIN      48  46  92 E6        30.01S
MONROE         LGT RAIN  47  46  98 E13       30.01F
6HR MIN TEMP:  46; 6HR MAX TEMP:  50; 6HR PCP:  0.14;

MT. CLEMENS    LGT RAIN  50  50 100 E6        30.05S FOG
6HR MIN TEMP:  50; 6HR MAX TEMP:  55; 6HR PCP:  0.09;

PONTIAC        LGT RAIN  48  46  93 E10       30.03F
6HR MIN TEMP:  48; 6HR MAX TEMP:  56; 6HR PCP:  0.11;

PORT HOPE        N/A     43  35  73 NE8       30.08F
6HR MIN TEMP:  43; 6HR MAX TEMP:  45;

PORT HURON     LGT RAIN  45  37  76 N3        30.08R
TRI CITIES     LGT RAIN  50  39  66 NE12      30.06S
6HR MIN TEMP:  50; 6HR MAX TEMP:  58; 6HR PCP: TRACE;

MIDLAND        LGT RAIN  48  34  58 NE9       30.06S
6HR MIN TEMP:  48; 6HR MAX TEMP:  57;

TROY           LGT RAIN  49  48  93 E5        30.07S
SAGINAW HB     DRIZZLE   52  45  76 E8        30.04S
$$
MIZ043>046-050>051-056>058-064>065-071>073-077>080-010100-
SOUTHWEST LOWER MICHIGAN

CITY           SKY/WX    TMP DP  RH WIND       PRES   REMARKS
BATTLE CREEK   LGT RAIN  48  45  89 E12       29.97F FOG
6HR MIN TEMP:  48; 6HR MAX TEMP:  51; 6HR PCP:  0.21;

BENTON HARBOR  LGT RAIN  48  45  89 E12       29.92F FOG
6HR MIN TEMP:  48; 6HR MAX TEMP:  49; 6HR PCP:  0.31;

BIG RAPIDS     LGT RAIN  50  36  57 E6        30.03S
6HR MIN TEMP:  50; 6HR MAX TEMP:  56;

COLDWATER      LGT RAIN  47  46  93 E15G21    29.94F
6HR MIN TEMP:  47; 6HR MAX TEMP:  49;

FREMONT        LGT RAIN  48  45  90 E7        30.01S
HOLLAND        LGT RAIN  48  44  86 E12       29.98F
6HR MIN TEMP:  48; 6HR MAX TEMP:  53; 6HR PCP:  0.17;

GRAND RAPIDS   LGT RAIN  49  44  83 E12       30.00F
6HR MIN TEMP:  49; 6HR MAX TEMP:  55; 6HR PCP:  0.10;

IONIA          LGT RAIN  47  44  88 E7        30.01F
6HR MIN TEMP:  47; 6HR MAX TEMP:  55; 6HR PCP:  0.04;

KALAMAZOO      LGT RAIN  49  45  86 NE9G16    29.95F FOG
6HR MIN TEMP:  49; 6HR MAX TEMP:  50; 6HR PCP:  0.23;

LUDINGTON      CLOUDY    55  34  44 E6        30.02S
6HR MIN TEMP:  55; 6HR MAX TEMP:  58;

MARSHALL       LGT RAIN  48  46  94 NE6       29.97F
6HR MIN TEMP:  48; 6HR MAX TEMP:  51; 6HR PCP:  0.22;

MOUNT PLEASANT LGT RAIN  50  36  58 E6        30.04S
6HR MIN TEMP:  50; 6HR MAX TEMP:  58;

MUSKEGON       LGT RAIN  50  44  80 E8        30.00F
6HR MIN TEMP:  50; 6HR MAX TEMP:  55; 6HR PCP:  0.08;

$$
MIZ016>042-010100-
NORTHERN LOWER MICHIGAN

CITY           SKY/WX    TMP DP  RH WIND       PRES   REMARKS
ALPENA         MOCLDY    49  29  46 E3        30.12F
6HR MIN TEMP:  49; 6HR MAX TEMP:  58;

BEAVER ISLAND  MOCLDY    50  27  40 E10       30.11R
6HR MIN TEMP:  50; 6HR MAX TEMP:  56;

BELLAIRE       CLOUDY    57  27  30 E9G17     30.06R
6HR MIN TEMP:  57; 6HR MAX TEMP:  63;

CADILLAC       CLOUDY    52  32  46 E9        30.03S
CHARLEVOIX     CLOUDY    54  26  34 E8        30.11S
6HR MIN TEMP:  48; 6HR MAX TEMP:  58;

FRANKFORT      CLOUDY    52  33  49 CALM      30.05R
GAYLORD        CLOUDY    52  26  36 VRB7      30.08S
6HR MIN TEMP:  52; 6HR MAX TEMP:  60;

HARBOR SPRINGS CLOUDY    52  24  33 NE10G17   30.10F
HOUGHTON LAKE  CLOUDY    52  26  36 E8        30.06F
6HR MIN TEMP:  52; 6HR MAX TEMP:  58;

MANISTEE       CLOUDY    55  28  35 NE8       30.04R
OSCODA         PTCLDY    46  28  48 NE6       30.10F
6HR MIN TEMP:  46; 6HR MAX TEMP:  56;

PELLSTON       CLOUDY    53  23  31 E7        30.11F
6HR MIN TEMP:  53; 6HR MAX TEMP:  60;

ROGERS CITY    MOCLDY    42  35  75 CALM      30.13F
TRAVERSE CITY  CLOUDY    50  35  56 NW3       30.04S
6HR MIN TEMP:  50; 6HR MAX TEMP:  55;

$$
MIZ007>008-015-010100-
EASTERN UPPER MICHIGAN

CITY           SKY/WX    TMP DP  RH WIND       PRES   REMARKS
KINROSS          N/A     46  36  66 NW7       30.13F
6HR MIN TEMP:  46; 6HR MAX TEMP:  59;

MACKINAC ISLAN CLOUDY    46  20  36 E8        30.13R
6HR MIN TEMP:  46; 6HR MAX TEMP:  54;

NEWBERRY       CLOUDY    46  33  61 N9        30.14S
6HR MIN TEMP:  46; 6HR MAX TEMP:  58;

S. S. MARIE    PTCLDY    53  32  44 SW5       30.13F
6HR MIN TEMP:  53; 6HR MAX TEMP:  62;

MUNISING         N/A     42  37  82 NE10      30.17F
6HR MIN TEMP:  41; 6HR MAX TEMP:  45;

$$
MIZ004>006-011>014-085-010100-
CENTRAL UPPER MICHIGAN

CITY           SKY/WX    TMP DP  RH WIND       PRES   REMARKS
MANISTIQUE     CLOUDY    51  33  50 N12G18    30.12S
6HR MIN TEMP:  51; 6HR MAX TEMP:  57;

ESCANABA       CLOUDY    50  32  50 NE12G17   30.13R
6HR MIN TEMP:  50; 6HR MAX TEMP:  55;

MENOMINEE      CLOUDY    52  30  43 NE8       30.09R
6HR MIN TEMP:  50; 6HR MAX TEMP:  54;

SAWYER-GWINN   CLEAR     41  32  70 NE16      30.15F
$$
MIZ001>003-009>011-084-010100-
WESTERN UPPER MICHIGAN

CITY           SKY/WX    TMP DP  RH WIND       PRES   REMARKS
IRON MOUNTAIN  MOCLDY    50  28  42 NE9       30.12R
6HR MIN TEMP:  50; 6HR MAX TEMP:  58;

HOUGHTON       CLEAR     47  31  53 E12       30.20F
6HR MIN TEMP:  45; 6HR MAX TEMP:  51;

COPPER HARBOR    N/A     43  36  76 N6        30.23S
6HR MIN TEMP:  41; 6HR MAX TEMP:  44;

IRONWOOD         N/A     46  32  57 NE12      30.16S
6HR MIN TEMP:  46; 6HR MAX TEMP:  52;

$$

ABBREVIATIONS USED IN REMARKS
   TC - TEMPERATURE IN CELSIUS
  WCI - WIND CHILL INDEX
   HX - HEAT INDEX
  VSB - VISIBILITY





USA.gov is the U.S. government's official web portal to all federal, state and local government web resources and services.